Regional Weather Roundup
Issued by NWS

Home | Current Version | Previous Version | Graphics & Text | Print | Product List | Glossary Off
Versions: 1 2 3 4 5 6 7 8 9 10 11 12 13 14 15 16 17 18 19 20 21 22 23 24 25 26 27 28 29 30 31 32 33 34 35 36 37 38 39 40 41 42 43 44 45 46 47 48 49 50

000
ASUS43 KTOP 290459
RWRKS

WEATHER ROUNDUP FOR KANSAS
NATIONAL WEATHER SERVICE GOODLAND KS
1200 AM CDT FRI AUG 29 2014

NOTE:  "FAIR" INDICATES FEW OR NO CLOUDS BELOW 12,000 FEET WITH NO
SIGNIFICANT WEATHER AND/OR OBSTRUCTIONS TO VISIBILITY.

KSZ001>006-013>018-027>032-041>047-290600-
NORTHWEST KANSAS

CITY           SKY/WX    TMP DP  RH WIND       PRES   REMARKS
GOODLAND       PTCLDY    60  57  89 NW6       30.00F
HAYS           CLOUDY    72  59  64 W18G24    29.91R
HILL CITY      LGT RAIN  68  60  75 SW3       29.89F
RUSSELL        CLOUDY    71  66  84 S13       29.85F
$$

KSZ061>065-074>080-084>089-290600-
SOUTHWEST KANSAS

CITY           SKY/WX    TMP DP  RH WIND       PRES   REMARKS
DODGE CITY     CLOUDY    67  59  75 NW5       29.96S
ELKHART          N/A     66  54  65 N3          N/A
GARDEN CITY    CLOUDY    66  60  81 SE3       29.96F
GREAT BEND     CLOUDY    70  61  73 S16       29.89S
LIBERAL        PTCLDY    70  55  60 CALM      29.99F
$$

KSZ066>073-081>083-090>101-290600-
SOUTHEAST KANSAS

CITY           SKY/WX    TMP DP  RH WIND       PRES   REMARKS
CHANUTE        PTCLDY    75  61  61 S8        29.90S
COFFEYVILLE    PTCLDY    75  64  68 S6        29.90R
HUTCHINSON     CLOUDY    70  63  78 S13       29.89R
NEWTON         CLOUDY    72  57  60 SW18G26   29.92R
PARSONS        PTCLDY    75  62  64 SE3       29.91S
WICHITA INTL   CLOUDY    69  65  86 VRB5      29.90R
WICHITA JABRA  LGT RAIN  68  64  87 SE6       29.89F
WICHITA MCCONL LGT RAIN  70  68  94 E13       29.89F
WINFIELD       CLOUDY    70  66  87 E6        29.93F
$$

KSZ007>012-019>026-033>040-048>060-102>105-290600-
NORTHEAST KANSAS

CITY           SKY/WX    TMP DP  RH WIND       PRES   REMARKS
CONCORDIA      CLOUDY    72  68  87 S9        29.83S
EMPORIA        CLOUDY    77  65  66 S13       29.89R
LAWRENCE       PTCLDY    76  64  66 CALM      29.88S
MANHATTAN      CLOUDY    75  67  76 SW3       29.85S
OLATHE IND     CLEAR     73  64  73 S6        29.90S
OLATHE EXE     CLEAR     75  64  68 S3        29.90R
SALINA         CLOUDY    73  65  75 S7        29.84S
TOPEKA BILLARD MOCLDY    81  64  56 S6        29.87S
TOPEKA FORBES  CLOUDY    80  62  54 S7        29.88S
$$


USA.gov is the U.S. government's official web portal to all federal, state and local government web resources and services.